Location: Ellerstadt
(49.4644°N, 8.2615°E)
Time: 17:01:38
(UTC+00:00)

Altair - Pass Details

Date: 13 June 2021
Orbit: 1502 x 1682 km, 47.2° (Epoch: 02 August)

Event Time Altitude Azimuth Distance (km) Brightness Sun altitude
Rises 22:28:59 0° 286° (WNW) 4,908 10.6 -16.1°
Reaches altitude 10° 22:34:22 10° 263° (W) 3,935 9.7 -16.3°
Maximum altitude 22:38:40 14° 237° (WSW) 3,653 9.3 -16.5°
Drops below altitude 10° 22:42:59 10° 211° (SSW) 3,937 9.2 -16.6°
Enters shadow 22:43:18 10° 209° (SSW) 3,979 9.2 -16.6°
